Home > Weather > Emmendingen > Past weeks

Flag for Germany Past Weather in Emmendingen, Baden-Württemberg, Germany — Yesterday and Last 2 Weeks

Now
81 °F

Sunny.


Feels Like: 81 °F
Forecast: 51 / 69 °F
Wind: 12 mph from Southwest

Location: Lahr - CAN-AFB

Current Time: Jul 1, 2016 at 7:15:31 PM

Latest Report: Jul 1, 2016 at 6:20 PM


Visibility: 10 mi

Pressure: 29.98 "Hg

Humidity: 45%

Dew Point: 57 °F

Location of EmmendingenLocation

Past Weather in Emmendingen — Graph

°F

Emmendingen Temperature Yesterday

Maximum temperature yesterday: 79 °F (at 6:50 PM)
Minimum temperature yesterday: 64 °F (at 7:50 AM)
Average temperature yesterday: 72 °F

High & Low Weather Summary for the Past Weeks

 TemperatureHumidityPressure
High91 °F (Jun 23, 3:50 PM)100% (Jun 17, 7:50 AM)30.24 "Hg (Jun 17, 7:50 AM)
Low54 °F (Jun 17, 11:50 AM)38% (Jun 23, 4:20 PM)29.59 "Hg (Jun 16, 7:50 PM)
Average73 °F63%30.06 "Hg
* Reported Jun 16 5:20 PM — Jul 1 5:50 PM, Emmendingen, Weather by CustomWeather, © 2016

Note: Actual official high and low records may vary slightly from our data, if they occured in-between our weather recording intervals... More about our weather records

Advertising

Emmendingen Weather History for the Previous 24 Hours

Scroll right to see more
 ConditionsComfort  
Time TempWeatherWind HumidityBarometerVisibility
5:50 PM
Fri, Jul 1
81 °FPassing clouds.12 mph42%29.98 "HgN/A
5:20 PM81 °FPassing clouds.9 mph42%29.98 "HgN/A
4:50 PM81 °FPassing clouds.9 mph42%29.98 "HgN/A
4:20 PM81 °FPassing clouds.7 mph48%30.01 "HgN/A
3:50 PM81 °FPassing clouds.7 mph45%30.01 "HgN/A
3:20 PM79 °FScattered clouds.7 mph48%30.01 "HgN/A
2:50 PM77 °FScattered clouds.7 mph54%30.04 "HgN/A
2:20 PM77 °FScattered clouds.5 mph54%30.04 "HgN/A
1:50 PM73 °FScattered clouds.7 mph61%30.04 "HgN/A
1:20 PM77 °FScattered clouds.5 mph57%30.04 "HgN/A
12:50 PM73 °FScattered clouds.10 mph61%30.07 "HgN/A
12:20 PM75 °FPartly sunny.8 mph57%30.07 "HgN/A
11:50 AM73 °FPartly sunny.10 mph57%30.07 "HgN/A
11:20 AM73 °FScattered clouds.10 mph61%30.07 "HgN/A
10:50 AM73 °FScattered clouds.9 mph57%30.07 "HgN/A
10:20 AM72 °FPassing clouds.8 mph69%30.07 "HgN/A
9:50 AM72 °FPassing clouds.7 mph69%30.07 "HgN/A
9:20 AM68 °FPartly sunny.8 mph78%30.07 "HgN/A
8:50 AM68 °FPartly sunny.7 mph78%30.07 "HgN/A
8:20 AM68 °FSunny.8 mph78%30.07 "Hg10 mi
7:50 AM66 °FSunny.6 mph83%30.07 "Hg10 mi
7:20 PM
Thu, Jun 30
75 °FScattered clouds.7 mph50%29.98 "HgN/A
Weather by CustomWeather, © 2016

See weather overviewHow to use our weather pages